Wind_Speed
61 63 63 59 58 57 56 57 56 54 52 53 54 52 49 48 49 48 46 44 42 39 37 37 36 35 34 33 32 31 31 31 30 30 30 30 30 30 31 31 32 31 31 32
62 64 59 56 57 58 58 58 57 55 55 55 55 54 51 50 50 49 47 46 43 41 40 39 38 37 36 35 34 33 33 33 32 32 32 32 32 32 32 33 32 33 33 34
62 59 56 58 58 58 59 59 56 55 55 56 56 56 54 51 51 50 49 47 45 43 41 41 40 38 37 36 35 35 35 34 34 34 34 34 33 33 33 34 34 35 35 35
60 59 59 59 58 57 58 55 55 55 55 56 57 59 55 52 52 51 49 47 46 44 43 42 41 40 38 37 37 36 36 36 36 36 36 35 34 34 35 36 36 36 36 36
59 59 60 60 57 55 54 53 54 54 56 57 58 60 57 54 53 50 48 47 46 45 43 43 42 41 40 39 39 38 37 37 37 36 36 36 35 35 36 37 37 37 37 37
57 58 59 57 54 55 54 53 54 55 55 60 58 60 61 55 51 48 46 45 45 44 44 43 42 42 41 40 40 39 38 37 37 37 37 36 36 36 37 37 37 38 38 37
55 58 59 59 57 56 56 55 54 56 58 61 57 61 62 52 49 46 45 45 44 44 44 43 43 42 41 40 40 39 39 38 38 38 38 37 37 37 37 37 38 38 38 38
53 56 58 60 59 57 56 57 57 57 59 58 57 60 58 50 47 46 45 44 44 44 43 43 43 42 42 41 40 39 39 38 38 38 38 38 37 37 37 38 38 38 38 38
50 52 56 58 58 58 58 57 55 55 56 56 58 56 54 50 45 43 43 43 43 42 42 42 42 42 41 41 40 39 39 38 39 38 38 37 37 37 37 38 38 38 38 38
49 50 52 55 57 58 58 57 56 56 55 55 56 55 51 46 42 40 40 41 41 41 41 41 42 41 41 41 40 40 40 39 39 38 38 38 37 37 37 37 38 38 38 38
51 49 49 53 57 58 58 58 58 56 55 53 53 52 46 43 40 39 38 39 40 40 41 41 40 40 40 40 40 41 40 39 39 38 38 38 37 37 37 37 37 37 37 37
51 52 51 50 51 54 56 56 57 57 55 53 52 49 43 41 40 39 38 38 38 39 39 39 39 39 39 39 39 39 39 39 38 38 38 37 37 37 37 37 37 37 37 36
50 52 54 52 51 53 55 55 55 55 55 53 51 47 42 40 39 38 38 37 37 37 37 37 37 37 38 38 38 37 37 37 37 37 37 36 36 36 36 36 36 36 36 36
49 52 54 55 53 52 54 54 55 55 55 54 51 45 42 39 37 36 36 36 36 36 36 36 36 36 37 36 36 36 36 36 36 36 36 36 35 35 35 35 35 35 35 36
47 51 52 53 52 52 52 53 54 55 53 51 47 45 42 39 37 36 35 35 35 36 36 36 36 36 36 36 36 35 35 35 35 35 35 35 35 35 34 34 34 35 35 35
43 47 51 52 50 50 53 52 51 52 51 50 48 45 41 40 41 39 38 37 36 35 35 35 36 36 35 35 35 35 35 35 34 34 34 34 34 34 34 34 34 34 34 34
40 43 48 51 51 52 54 51 50 49 48 48 48 43 42 41 40 39 39 38 37 36 35 35 35 34 35 35 35 35 34 34 34 33 33 33 33 33 33 32 32 33 33 34
38 40 43 48 50 54 52 49 49 48 47 47 45 44 44 42 40 41 40 39 37 36 36 36 35 35 35 35 35 35 34 34 33 32 32 32 32 32 32 32 32 33 33 33
36 38 41 45 49 51 50 48 46 47 46 45 45 44 44 44 44 43 41 40 38 37 37 37 37 37 36 35 34 34 34 33 33 32 32 31 32 32 32 32 32 33 33 33
36 38 39 41 44 47 45 44 44 45 45 43 43 43 43 45 46 41 40 40 38 38 38 38 38 37 36 35 34 33 33 33 32 31 31 31 31 31 31 31 31 32 32 33
35 37 40 42 42 43 41 42 43 45 42 40 43 43 43 44 42 39 40 40 39 39 38 38 37 36 35 34 33 33 32 32 32 32 31 30 30 30 31 31 31 32 32 32
35 36 40 42 43 40 38 39 41 39 39 40 41 43 43 42 42 41 41 41 40 39 38 38 36 35 34 33 33 32 32 32 32 32 31 30 30 31 31 31 31 32 32 32
36 35 38 42 40 37 38 37 38 38 38 39 40 41 42 42 42 42 41 40 39 38 38 37 36 35 34 34 32 32 31 31 31 31 31 31 30 30 30 31 31 31 32 33
34 34 37 40 39 38 37 36 38 38 37 37 37 38 39 40 41 41 41 39 39 38 37 37 36 35 34 33 32 31 31 31 30 30 30 30 30 30 30 30 31 31 32 33
34 35 38 40 39 39 39 37 37 36 37 37 37 37 37 38 39 40 40 38 37 37 37 36 35 34 33 33 32 31 31 30 30 30 30 29 29 30 30 30 31 32 32 33
33 34 37 37 37 38 38 37 36 35 34 35 36 35 35 36 37 39 38 37 37 36 35 34 34 33 32 31 31 31 30 30 30 30 29 29 29 29 30 31 31 32 33 33
Wind_Direction
231 230 230 231 232 233 233 233 233 231 231 233 234 234 231 231 232 232 233 234 235 236 237 240 242 244 245 247 249 252 255 258 262 265 267 270 272 274 277 279 281 283 283 284
230 230 230 230 231 231 231 231 231 231 231 233 234 234 232 231 233 233 234 235 236 237 239 241 243 245 246 248 250 253 256 259 261 264 267 269 271 274 276 279 281 281 282 283
229 229 228 229 229 230 229 229 230 231 232 234 235 234 232 232 233 234 235 236 237 238 240 242 244 246 247 249 251 254 256 259 261 264 266 269 271 273 275 277 279 280 281 283
227 225 226 227 228 229 229 229 230 231 232 233 235 236 231 232 233 235 236 237 238 240 241 243 245 247 248 250 252 254 256 259 261 264 266 269 271 272 274 275 277 279 282 283
226 223 224 225 226 228 229 229 230 232 233 234 234 237 231 231 233 234 236 238 239 241 242 243 245 247 249 251 252 254 256 258 261 263 265 267 269 271 273 275 277 279 280 281
225 223 223 224 224 226 227 228 230 232 234 235 233 237 234 229 231 234 236 238 239 240 241 243 245 247 249 251 252 254 256 258 260 262 264 266 268 270 272 274 276 278 279 280
222 222 222 221 221 221 223 224 228 230 232 234 232 237 236 229 230 233 235 237 238 239 241 242 245 247 249 250 252 254 256 258 260 261 263 265 266 268 271 273 275 277 278 279
221 221 220 220 221 221 222 224 226 230 234 235 234 236 236 232 230 231 234 237 239 240 241 242 244 246 248 249 251 253 256 257 259 260 262 264 266 268 270 272 274 275 276 277
222 223 221 222 222 222 222 223 226 230 235 236 237 236 235 234 231 231 233 235 237 240 241 242 244 246 247 248 250 252 254 255 257 259 261 262 265 268 269 271 272 274 275 277
221 223 221 221 222 223 224 224 225 227 231 234 236 236 233 233 233 232 233 234 236 239 241 242 243 245 246 248 250 251 253 254 256 258 260 262 265 267 268 269 271 273 274 277
220 221 220 222 222 223 222 223 225 228 231 234 236 235 232 234 234 234 234 234 236 238 240 242 243 244 246 247 249 250 252 254 255 257 260 262 263 265 266 268 270 272 274 276
221 221 220 222 223 223 226 227 227 228 231 233 236 234 232 233 233 233 233 234 235 236 238 240 242 243 245 247 248 250 252 253 255 257 259 260 262 264 266 268 270 272 274 276
220 223 222 220 221 220 223 225 227 229 231 233 234 231 229 231 231 231 232 233 234 235 236 238 241 243 245 246 248 249 251 253 254 256 258 260 262 265 267 268 270 271 274 276
223 224 224 224 223 224 223 224 225 226 229 230 230 228 227 229 230 230 231 232 232 233 235 236 239 242 244 246 247 249 250 252 254 256 258 260 262 264 265 267 269 271 274 276
225 225 225 225 225 225 224 224 224 226 228 230 228 228 225 228 229 229 229 230 231 232 233 236 238 241 243 246 247 249 250 252 254 256 258 260 261 263 265 267 269 272 274 276
227 228 226 226 226 227 225 223 225 226 227 229 228 226 225 228 229 229 229 231 232 232 233 235 237 240 242 244 246 248 250 251 253 256 258 260 262 263 265 267 270 272 274 276
226 228 229 228 228 229 226 222 225 226 226 228 228 225 226 227 228 230 231 232 232 232 233 234 236 238 240 241 244 246 249 251 253 256 258 260 262 263 266 268 270 273 275 277
223 224 229 230 229 231 225 224 226 227 225 227 227 225 226 227 227 228 229 230 230 231 231 232 235 237 238 240 243 246 248 251 253 256 258 260 262 264 266 269 272 273 275 277
223 224 226 228 230 230 223 223 225 227 225 224 226 225 225 226 227 227 227 229 230 230 231 232 234 236 238 240 242 245 248 252 254 256 258 261 263 265 267 269 271 274 276 278
223 222 225 225 228 227 221 222 224 226 224 222 224 224 225 226 228 226 227 229 231 231 231 232 233 235 237 240 243 246 249 252 254 256 258 261 264 266 267 269 272 274 276 278
223 222 224 225 228 226 220 221 223 225 221 222 225 225 226 228 228 225 226 228 229 230 230 231 232 234 237 241 244 246 249 252 254 257 259 262 264 266 268 271 273 276 278 280
225 224 223 223 226 224 219 221 221 221 220 222 223 224 225 226 225 224 225 227 228 229 230 231 232 234 238 241 244 246 249 252 254 257 260 262 264 267 269 272 274 277 278 280
221 221 221 222 223 220 219 218 215 216 219 221 223 223 224 224 224 223 224 226 228 228 229 231 233 235 238 241 244 246 248 251 254 257 260 262 264 267 270 273 275 277 279 282
219 220 221 219 217 219 218 217 216 217 219 221 221 220 222 223 223 223 223 224 225 226 228 231 233 236 238 241 243 245 248 251 253 256 259 262 265 268 271 273 275 278 281 283
219 218 219 218 217 218 216 216 215 216 219 221 219 218 218 220 220 221 222 224 225 226 228 231 233 235 237 240 242 245 247 250 253 257 259 262 265 269 271 274 276 279 281 285
217 218 216 214 214 216 212 213 216 217 218 219 219 218 217 219 220 220 222 224 225 227 229 230 232 234 237 239 242 244 248 251 254 257 260 263 266 269 272 275 277 280 283 286
Height
5629 5635 5643 5656 5665 5675 5680 5686 5693 5702 5707 5710 5715 5722 5731 5735 5739 5745 5752 5757 5762 5768 5772 5775 5778 5781 5783 5786 5788 5790 5792 5793 5794 5795 5796 5797 5797 5797 5796 5796 5795 5794 5793 5792
5615 5622 5638 5647 5653 5659 5666 5672 5681 5689 5695 5699 5703 5709 5718 5724 5729 5736 5742 5748 5754 5759 5763 5767 5770 5773 5776 5779 5781 5783 5785 5786 5787 5789 5789 5790 5790 5790 5789 5789 5788 5787 5786 5785
5602 5618 5628 5632 5639 5645 5653 5662 5672 5678 5684 5687 5692 5697 5706 5714 5720 5726 5733 5739 5744 5750 5754 5758 5761 5765 5768 5771 5774 5776 5777 5778 5780 5780 5781 5782 5782 5782 5782 5781 5780 5779 5778 5777
5590 5604 5612 5618 5626 5635 5643 5655 5662 5666 5671 5675 5680 5684 5696 5703 5709 5717 5724 5730 5736 5741 5745 5749 5753 5756 5760 5763 5765 5767 5769 5770 5771 5772 5773 5774 5775 5775 5774 5773 5772 5772 5771 5770
5579 5592 5599 5606 5618 5627 5637 5646 5650 5654 5658 5662 5667 5671 5683 5693 5700 5709 5716 5722 5727 5732 5736 5740 5744 5747 5750 5753 5756 5758 5760 5762 5763 5764 5765 5766 5767 5767 5766 5765 5765 5764 5763 5762
5570 5580 5588 5599 5610 5617 5625 5631 5636 5640 5644 5647 5657 5660 5668 5684 5694 5701 5708 5713 5717 5722 5726 5730 5734 5737 5741 5744 5747 5749 5752 5754 5755 5756 5757 5758 5758 5758 5758 5757 5757 5756 5755 5754
5558 5567 5576 5586 5594 5603 5610 5618 5624 5626 5629 5635 5649 5649 5658 5679 5687 5693 5699 5703 5707 5712 5716 5721 5725 5728 5731 5735 5738 5740 5742 5745 5746 5747 5748 5749 5750 5749 5749 5749 5748 5748 5747 5746
5548 5556 5565 5574 5583 5592 5601 5608 5614 5618 5622 5631 5638 5639 5654 5670 5678 5684 5689 5694 5698 5702 5707 5711 5715 5719 5722 5725 5728 5731 5733 5735 5737 5738 5740 5740 5740 5741 5741 5741 5740 5739 5739 5737
5539 5548 5558 5566 5576 5583 5589 5595 5606 5611 5614 5621 5624 5634 5647 5658 5668 5675 5680 5684 5689 5693 5697 5701 5705 5709 5712 5716 5719 5721 5724 5726 5728 5729 5730 5731 5731 5732 5732 5732 5731 5731 5730 5729
5529 5538 5547 5555 5562 5569 5579 5588 5593 5598 5603 5608 5615 5625 5638 5650 5659 5666 5671 5676 5680 5684 5687 5691 5695 5699 5703 5706 5709 5712 5714 5717 5718 5720 5721 5722 5723 5723 5723 5723 5723 5722 5722 5721
5520 5528 5536 5543 5550 5559 5568 5574 5580 5588 5594 5600 5607 5620 5634 5643 5650 5656 5662 5666 5670 5674 5678 5682 5685 5689 5693 5696 5699 5702 5705 5707 5709 5711 5712 5713 5713 5714 5714 5714 5714 5713 5713 5712
5511 5518 5525 5534 5544 5552 5558 5565 5573 5579 5586 5593 5600 5615 5626 5634 5640 5646 5652 5656 5660 5665 5669 5672 5676 5680 5683 5687 5690 5693 5695 5697 5699 5701 5702 5703 5704 5705 5705 5705 5705 5705 5704 5704
5502 5509 5516 5523 5532 5538 5545 5553 5562 5570 5576 5583 5591 5607 5617 5623 5630 5636 5641 5646 5651 5655 5659 5663 5667 5671 5674 5677 5680 5683 5686 5688 5690 5692 5693 5694 5695 5696 5696 5696 5696 5696 5696 5695
5492 5498 5506 5513 5521 5529 5536 5544 5551 5557 5564 5573 5584 5598 5608 5614 5621 5627 5632 5637 5641 5646 5650 5654 5658 5661 5665 5668 5671 5674 5677 5679 5681 5683 5684 5686 5686 5687 5687 5688 5688 5687 5687 5686
5483 5489 5496 5504 5512 5519 5527 5535 5542 5548 5557 5567 5580 5589 5600 5606 5613 5618 5623 5628 5633 5637 5642 5646 5649 5653 5656 5659 5662 5665 5668 5670 5672 5674 5675 5677 5677 5678 5679 5679 5679 5679 5679 5678
5475 5481 5488 5495 5502 5508 5515 5525 5533 5541 5551 5560 5570 5580 5592 5597 5602 5608 5614 5619 5624 5629 5633 5637 5640 5644 5647 5650 5653 5656 5659 5661 5663 5665 5666 5668 5669 5669 5670 5670 5670 5670 5670 5669
5467 5474 5480 5486 5493 5496 5504 5517 5526 5535 5544 5553 5561 5576 5583 5587 5593 5600 5605 5610 5615 5620 5624 5628 5632 5635 5639 5642 5645 5647 5650 5652 5654 5656 5658 5659 5660 5661 5661 5662 5662 5662 5661 5661
5460 5466 5471 5477 5484 5487 5504 5514 5520 5528 5537 5546 5554 5564 5571 5577 5583 5588 5594 5600 5605 5610 5615 5619 5623 5627 5630 5633 5636 5639 5641 5644 5646 5648 5649 5650 5651 5652 5653 5653 5654 5653 5653 5652
5453 5458 5463 5469 5474 5481 5496 5506 5513 5520 5528 5538 5545 5554 5560 5566 5570 5577 5585 5591 5597 5602 5606 5610 5614 5618 5621 5625 5628 5631 5633 5635 5637 5639 5641 5642 5643 5644 5644 5645 5645 5644 5644 5643
5446 5451 5456 5462 5467 5475 5492 5500 5505 5510 5518 5530 5536 5543 5549 5554 5560 5571 5577 5582 5587 5592 5596 5601 5605 5609 5613 5617 5620 5623 5625 5627 5629 5631 5632 5634 5635 5635 5636 5636 5636 5636 5635 5634
5438 5442 5448 5455 5460 5470 5483 5490 5494 5502 5515 5522 5526 5533 5538 5544 5554 5563 5566 5572 5577 5582 5587 5592 5596 5601 5605 5609 5612 5615 5617 5619 5621 5622 5624 5625 5626 5627 5627 5627 5627 5627 5626 5625
5431 5437 5443 5448 5454 5467 5476 5481 5488 5498 5507 5511 5517 5522 5529 5536 5544 5550 5556 5562 5567 5573 5579 5583 5588 5593 5597 5601 5604 5606 5609 5611 5612 5614 5616 5617 5618 5618 5619 5619 5619 5618 5618 5617
5424 5431 5436 5443 5453 5461 5467 5474 5482 5489 5495 5500 5506 5513 5519 5526 5533 5540 5546 5553 5559 5565 5570 5575 5580 5584 5589 5592 5596 5598 5601 5602 5604 5606 5608 5609 5609 5610 5610 5610 5610 5610 5609 5608
5417 5423 5429 5436 5445 5452 5459 5465 5473 5480 5486 5491 5498 5504 5511 5517 5524 5531 5538 5544 5550 5557 5562 5567 5572 5576 5581 5584 5588 5590 5592 5594 5596 5598 5599 5600 5601 5602 5602 5602 5602 5601 5601 5599
5409 5415 5421 5429 5438 5444 5452 5458 5465 5471 5477 5484 5490 5497 5503 5509 5516 5524 5530 5537 5542 5548 5554 5559 5564 5568 5573 5576 5579 5582 5584 5587 5588 5590 5591 5592 5593 5594 5594 5594 5593 5593 5592 5590
5405 5410 5416 5423 5431 5436 5444 5451 5458 5464 5471 5478 5484 5490 5496 5502 5509 5516 5523 5529 5535 5541 5546 5551 5556 5560 5564 5568 5571 5574 5577 5579 5581 5582 5583 5584 5585 5585 5585 5585 5585 5583 5583 5581